Starlink 33853

operational
NORAD ID: 63684 Int'l Des: 2025-085 Owner: SPXS Country: US Constellation: starlink
LEOCIRCULAR

Starlink 33853について

説明を読み込み中...

リアルタイム位置

3D地球を読み込み中...

次回通過

高度履歴

Altitude vs Time

uPlot chart will show altitude changes over time

軌道要素

1 63684U 25085W 25303.70084963 .00058263 00000-0 21099-2 0 9994
2 63684 43.0009 44.6934 0002167 261.0333 99.0273 15.27581513 28995
Epoch: Oct 30, 2025 • Age: 13 hours

現在のステータス

高度 485.3 km
速度 7.62 km/s
衛星直下点 -15.89°S, 105.48°E
打ち上げ日 Apr 28, 2025
運用期間 0.5 years
タイプ internet

技術仕様

分類 Payload
質量 575.00 kg
乾燥質量 530.00 kg
総質量 575.00 kg
長さ 0.30 m
直径 4.10 m
スパン 29.00 m
形状 Box + pan
製造者 SPXS
バスタイプ Starlink V2MO
フェーズステータス In Orbit
所有者/国 SPXS/US

大規模コンステレーション

Loading constellations...